sat.trackr.live / text

‹ back to catalog

STARLINK-2228

NORAD 48576 · 2021-041Z

PAYLOAD ACTIVE UNKNOWN

§ Identity

Operator
Country
US
Launch date
2021-05-15
Launch site
AFETR
Launch vehicle
Mass (kg)
RCS (m²)

Purposes: comms

External: N2YO · Heavens-Above · Gunter

§ Orbital elements

Epoch: 2026-09-09T22:05:03.934752Z

Period
94.01 min
Inclination
53.1603°
Eccentricity
0.0001505
Mean motion
15.31704816 rev/d
Perigee alt
469.7 km
Apogee alt
471.8 km
Semi-major
6,848.9 km
B*
2.3663e-5
RAAN
323.7083°
Arg perigee
75.6938°
Mean anomaly
284.4231°
Rev number
29,387

§ Raw data

STARLINK-22281 48576U 21041Z   26252.92018443  .00000369  00000+0  23663-4 0  99972 48576  53.1603 323.7083 0001505  75.6938 284.4231 15.31704816293874

JSON: /api/v1/satellites/48576 · /tle

For live sub-satellite position, see the globe view (requires WebGL).

§ Visibility from observer

Set your observer location to see the next 7 days of passes ≥ 10°. The values pass through the URL so the page stays shareable.

No JS? Fill the form by hand. The geolocation button needs JavaScript.